FW8563 Weather Reports


Display with metric or nautical units.
time (UTC)temp
F
wind
direction
speed
MPH
gust
MPH
rain 1hr
in
rain 24hr
in
rain mn
in
humidity
%
barometer
mb
20260502152032 67 41 4.0 11.0 0.00 0.00 0.00 38 1023.2
20260502151532 67 5 4.0 11.0 0.00 0.00 0.00 39 1023.1
20260502151031 67 30 4.0 10.0 0.00 0.00 0.00 38 1023.1
20260502150534 67 18 3.0 10.0 0.00 0.00 0.00 38 1023.1
20260502130512 67 17 3.0 13.0 0.00 0.00 0.00 40 1024.2
20260502123454 67 54 3.0 9.0 0.00 0.00 0.00 38 1024.6
20260502122955 66 84 4.0 10.0 0.00 0.00 0.00 40 1024.6
20260502122454 66 338 4.0 10.0 0.00 0.00 0.00 41 1024.6
20260502121956 67 56 3.0 11.0 0.00 0.00 0.00 40 1024.7
20260502121455 66 355 3.0 11.0 0.00 0.00 0.00 44 1024.6
20260502120956 65 45 5.0 12.0 0.00 0.00 0.00 41 1024.8
20260502120454 65 24 5.0 12.0 0.00 0.00 0.00 41 1024.9
20260502115455 65 61 3.0 9.0 0.00 0.00 0.00 42 1024.8
20260502114955 65 344 3.0 11.0 0.00 0.00 0.00 42 1024.9
20260502114454 65 23 4.0 13.0 0.00 0.00 0.00 41 1025.0
20260502113451 65 285 3.0 13.0 0.00 0.00 0.00 42 1024.9
20260502112450 65 22 3.0 11.0 0.00 0.00 0.00 44 1025.1
20260502111952 65 44 3.0 13.0 0.00 0.00 0.00 44 1025.2
20260502111450 64 348 3.0 13.0 0.00 0.00 0.00 45 1025.2
20260502110451 63 64 4.0 10.0 0.00 0.00 0.00 45 1025.4
20260502105952 63 128 4.0 10.0 0.00 0.00 0.00 44 1025.3
20260502105449 63 17 4.0 12.0 0.00 0.00 0.00 45 1025.5
20260502104949 63 39 4.0 12.0 0.00 0.00 0.00 43 1025.5
20260502104450 62 331 4.0 13.0 0.00 0.00 0.00 44 1025.5
20260502103949 62 37 5.0 13.0 0.00 0.00 0.00 44 1025.7
20260502103449 62 61 5.0 13.0 0.00 0.00 0.00 44 1025.8
20260502102449 62 22 4.0 12.0 0.00 0.00 0.00 44 1025.9
20260502101950 62 37 6.0 18.0 0.00 0.00 0.00 46 1025.8
20260502100949 61 33 7.0 15.0 0.00 0.00 0.00 46 1025.8
20260502100447 61 353 7.0 16.0 0.00 0.00 0.00 45 1026.0
20260502091446 59 349 8.0 16.0 0.00 0.00 0.00 48 1026.2
20260502090946 59 18 8.0 18.0 0.00 0.00 0.00 47 1026.1
20260502090449 59 88 7.0 18.0 0.00 0.00 0.00 47 1026.1
20260502071438 55 358 6.0 16.0 0.00 0.00 0.00 53 1026.1
20260502070938 55 16 6.0 16.0 0.00 0.00 0.00 51 1026.1
20260502070433 55 23 6.0 16.0 0.00 0.00 0.00 52 1026.1
20260502064434 54 18 3.0 11.0 0.00 0.00 0.00 53 1026.1
20260502063935 53 333 4.0 11.0 0.00 0.00 0.00 53 1026.1
20260502063433 53 10 5.0 11.0 0.00 0.00 0.00 52 1026.0
20260502062936 52 349 5.0 11.0 0.00 0.00 0.00 53 1026.0
20260502062433 52 25 5.0 11.0 0.00 0.00 0.00 53 1026.1
20260502061927 52 301 4.0 10.0 0.00 0.00 0.00 53 1026.1
20260502061428 52 308 4.0 12.0 0.00 0.00 0.00 53 1026.1
20260502060927 52 341 4.0 12.0 0.00 0.00 0.00 53 1026.1
20260502055925 51 350 4.0 10.0 0.00 0.00 0.00 54 1026.0
20260502055427 51 326 4.0 10.0 0.00 0.00 0.00 54 1025.9
20260502054927 51 3 4.0 10.0 0.00 0.00 0.00 54 1025.9
20260502054425 51 13 5.0 11.0 0.00 0.00 0.00 53 1025.9
20260502053925 50 26 5.0 11.0 0.00 0.00 0.00 54 1025.9
20260502053425 50 30 5.0 12.0 0.00 0.00 0.00 54 1025.9
20260502052926 50 23 7.0 13.0 0.00 0.00 0.00 54 1025.9
20260502052425 50 24 8.0 13.0 0.00 0.00 0.00 53 1025.8
20260502051925 50 20 8.0 13.0 0.00 0.00 0.00 53 1025.8
20260502051425 49 332 8.0 13.0 0.00 0.00 0.00 53 1025.9
20260502050925 49 13 6.0 13.0 0.00 0.00 0.00 53 1025.8
20260502050418 49 19 6.0 13.0 0.00 0.00 0.00 54 1025.8
20260502045919 49 358 5.0 13.0 0.00 0.00 0.00 54 1025.8
20260502045422 48 8 5.0 12.0 0.00 0.00 0.00 54 1025.8
20260502044919 48 329 5.0 11.0 0.00 0.00 0.00 54 1025.9
20260502044419 48 21 5.0 10.0 0.00 0.00 0.00 54 1025.8
20260502043919 47 25 5.0 10.0 0.00 0.00 0.00 54 1025.9
20260502043418 47 349 5.0 11.0 0.00 0.00 0.00 54 1025.7
20260502042420 47 331 6.0 12.0 0.00 0.00 0.00 54 1025.8
20260502041928 47 11 5.0 12.0 0.00 0.00 0.00 54 1025.8
20260502040921 47 359 3.0 8.0 0.00 0.00 0.00 54 1025.9
20260502040421 47 7 3.0 8.0 0.00 0.00 0.00 53 1025.9
20260502035921 47 353 3.0 9.0 0.00 0.00 0.00 53 1026.0
20260502035420 47 330 2.0 9.0 0.00 0.00 0.00 53 1026.0
20260502034919 47 311 2.0 7.0 0.00 0.00 0.00 53 1026.0
20260502034422 47 341 2.0 7.0 0.00 0.00 0.00 53 1026.0
20260502033918 47 309 3.0 7.0 0.00 0.00 0.00 53 1026.0
20260502033414 47 354 3.0 7.0 0.00 0.00 0.00 53 1025.9
20260502031916 47 358 2.0 6.0 0.00 0.00 0.00 53 1026.0
20260502031415 47 300 2.0 6.0 0.00 0.00 0.00 52 1026.0
20260502030915 47 327 1.0 5.0 0.00 0.00 0.00 52 1026.0
20260502030418 47 333 1.0 4.0 0.00 0.00 0.00 52 1025.9
20260502025914 47 342 2.0 5.0 0.00 0.00 0.00 52 1026.1
20260502025411 47 311 2.0 5.0 0.00 0.00 0.00 52 1026.0
20260502024409 47 335 0.0 4.0 0.00 0.00 0.00 51 1026.0
20260502023909 47 313 0.0 5.0 0.00 0.00 0.00 50 1026.1
20260502023410 47 336 1.0 5.0 0.00 0.00 0.00 50 1026.1
20260502022409 47 357 1.0 5.0 0.00 0.00 0.00 50 1026.1
20260502021910 48 8 1.0 5.0 0.00 0.00 0.00 49 1026.0
20260502021406 48 15 0.0 4.0 0.00 0.00 0.00 48 1026.0
20260502020907 48 338 1.0 6.0 0.00 0.00 0.00 48 1026.1
20260502020404 48 339 2.0 6.0 0.00 0.00 0.00 47 1026.1
20260502015905 48 345 1.0 5.0 0.00 0.00 0.00 48 1026.2
20260502015404 47 338 1.0 4.0 0.00 0.00 0.00 48 1026.2
20260502014908 47 352 1.0 5.0 0.00 0.00 0.00 48 1026.2
20260502014405 48 321 1.0 7.0 0.00 0.00 0.00 48 1026.1
20260502013903 47 18 1.0 7.0 0.00 0.00 0.00 48 1026.1
20260502013403 47 353 1.0 5.0 0.00 0.00 0.00 48 1026.2
20260502012904 47 6 1.0 5.0 0.00 0.00 0.00 47 1026.2
20260502012402 48 352 1.0 6.0 0.00 0.00 0.00 47 1026.2
20260502011903 48 354 2.0 6.0 0.00 0.00 0.00 47 1026.2
20260502011403 48 323 1.0 6.0 0.00 0.00 0.00 47 1026.1
20260502010903 48 331 1.0 4.0 0.00 0.00 0.00 47 1026.1
20260502010403 47 28 1.0 4.0 0.00 0.00 0.00 47 1026.2
20260502005903 47 25 1.0 4.0 0.00 0.00 0.00 47 1026.1
20260502005403 47 335 0.0 4.0 0.00 0.00 0.00 47 1026.1
20260502004904 47 20 1.0 5.0 0.00 0.00 0.00 46 1026.2
20260502004402 47 335 1.0 5.0 0.00 0.00 0.00 46 1026.1
20260502003903 47 344 1.0 4.0 0.00 0.00 0.00 46 1026.1
20260502003405 47 329 1.0 4.0 0.00 0.00 0.00 46 1026.2
20260502002909 47 356 0.0 4.0 0.00 0.00 0.00 47 1026.2
20260502002404 47 342 0.0 4.0 0.00 0.00 0.00 47 1026.2
20260502001903 47 340 0.0 3.0 0.00 0.00 0.00 48 1026.2
20260502001404 46 341 0.0 0.0 0.00 0.00 0.00 48 1026.2
20260502000905 46 335 0.0 0.0 0.00 0.00 0.00 49 1026.2
20260502000405 46 350 0.0 1.0 0.00 0.00 0.00 49 1026.2
20260501235902 46 341 1.0 4.0 0.00 0.00 0.00 50 1026.5
20260501235403 46 355 1.0 6.0 0.00 0.00 0.00 49 1026.3
20260501234903 46 16 1.0 6.0 0.00 0.00 0.00 50 1026.5
20260501234405 46 338 1.0 5.0 0.00 0.00 0.00 49 1026.5
20260501233904 46 4 0.0 3.0 0.00 0.00 0.00 49 1026.5
20260501233408 47 340 0.0 3.0 0.00 0.00 0.00 49 1026.5
20260501232901 47 349 1.0 7.0 0.00 0.00 0.00 48 1026.5
20260501232401 47 32 2.0 7.0 0.00 0.00 0.00 47 1026.5
20260501231901 47 3 3.0 8.0 0.00 0.00 0.00 47 1026.5
20260501231358 47 25 4.0 8.0 0.00 0.00 0.00 46 1026.5
20260501230859 47 19 4.0 8.0 0.00 0.00 0.00 46 1026.5
20260501230358 47 1 3.0 8.0 0.00 0.00 0.00 46 1026.6
20260501225857 47 1 3.0 7.0 0.00 0.00 0.00 46 1026.5
20260501224856 47 16 2.0 8.0 0.00 0.00 0.00 46 1026.5
20260501224358 47 338 1.0 7.0 0.00 0.00 0.00 45 1026.6
20260501223856 47 20 1.0 4.0 0.00 0.00 0.00 46 1026.3
20260501223350 47 23 1.0 7.0 0.00 0.00 0.00 45 1026.5
20260501222843 47 5 3.0 9.0 0.00 0.00 0.00 45 1026.2
20260501222341 47 330 3.0 9.0 0.00 0.00 0.00 45 1026.2
20260501221841 47 0 4.0 10.0 0.00 0.00 0.00 45 1026.2
20260501221341 48 21 4.0 10.0 0.00 0.00 0.00 45 1026.1
20260501220839 48 35 3.0 11.0 0.00 0.00 0.00 44 1026.1
20260501220342 48 346 3.0 11.0 0.00 0.00 0.00 44 1026.1
20260501215838 48 13 3.0 9.0 0.00 0.00 0.00 44 1026.1
20260501215340 48 347 2.0 7.0 0.00 0.00 0.00 44 1026.0
20260501214839 48 25 2.0 7.0 0.00 0.00 0.00 44 1026.1
20260501214338 48 314 1.0 8.0 0.00 0.00 0.00 44 1026.0
20260501213841 48 338 1.0 8.0 0.00 0.00 0.00 44 1026.1
20260501213340 48 345 1.0 4.0 0.00 0.00 0.00 44 1026.1
20260501212837 49 337 1.0 7.0 0.00 0.00 0.00 44 1026.0
20260501212337 49 359 3.0 10.0 0.00 0.00 0.00 44 1026.0
20260501211838 49 7 5.0 12.0 0.00 0.00 0.00 43 1025.8
20260501211349 49 25 7.0 16.0 0.00 0.00 0.00 43 1025.7
20260501205835 49 18 7.0 16.0 0.00 0.00 0.00 43 1025.4
20260501205330 49 18 7.0 15.0 0.00 0.00 0.00 43 1025.5
20260501204830 49 9 7.0 15.0 0.00 0.00 0.00 43 1025.3
20260501204331 49 10 7.0 15.0 0.00 0.00 0.00 44 1025.4
20260501203330 49 17 5.0 12.0 0.00 0.00 0.00 44 1025.4
20260501202832 49 23 5.0 12.0 0.00 0.00 0.00 43 1025.3
20260501202331 50 4 6.0 12.0 0.00 0.00 0.00 44 1025.3
20260501201830 50 9 7.0 13.0 0.00 0.00 0.00 43 1025.2
20260501200830 50 19 6.0 11.0 0.00 0.00 0.00 43 1025.4
20260501195830 50 46 5.0 12.0 0.00 0.00 0.00 43 1025.4
20260501195334 50 23 3.0 10.0 0.00 0.00 0.00 43 1025.5
20260501194322 50 356 3.0 10.0 0.00 0.00 0.00 43 1025.4
20260501193822 51 352 4.0 10.0 0.00 0.00 0.00 42 1025.2
20260501192820 51 344 5.0 12.0 0.00 0.00 0.00 42 1025.1
20260501192323 51 347 5.0 11.0 0.00 0.00 0.00 43 1024.9
20260501191820 51 23 5.0 12.0 0.00 0.00 0.00 45 1024.7
20260501191318 51 34 7.0 16.0 0.00 0.00 0.00 45 1024.6
20260501190818 51 9 9.0 18.0 0.00 0.00 0.00 44 1024.3
20260501190318 51 6 9.0 18.0 0.00 0.00 0.00 45 1024.1
20260501185318 52 25 9.0 17.0 0.00 0.00 0.00 46 1024.0
20260501184820 52 359 9.0 17.0 0.00 0.00 0.00 47 1023.9
20260501184317 52 8 10.0 17.0 0.00 0.00 0.00 48 1023.8
20260501183812 52 13 10.0 19.0 0.00 0.00 0.00 47 1023.7
20260501183310 53 6 11.0 19.0 0.00 0.00 0.00 47 1023.6
20260501182310 53 37 10.0 17.0 0.00 0.00 0.00 46 1023.7
20260501181810 53 24 10.0 18.0 0.00 0.00 0.00 45 1023.7
20260501181309 53 359 10.0 18.0 0.00 0.00 0.00 45 1023.7
20260501180812 54 15 9.0 20.0 0.00 0.00 0.00 45 1023.7
20260501180310 54 8 9.0 20.0 0.00 0.00 0.00 45 1023.7
20260501175810 54 342 8.0 15.0 0.00 0.00 0.00 44 1023.6
20260501174310 55 16 8.0 18.0 0.00 0.00 0.00 44 1023.5
20260501173312 56 27 8.0 17.0 0.00 0.00 0.00 43 1023.6
20260501172810 56 340 8.0 17.0 0.00 0.00 0.00 43 1023.6
20260501172306 56 32 8.0 14.0 0.00 0.00 0.00 43 1023.6
20260501171300 57 19 8.0 18.0 0.00 0.00 0.00 42 1023.6
20260501170300 57 27 8.0 17.0 0.00 0.00 0.00 42 1023.5
20260501165257 58 13 10.0 19.0 0.00 0.00 0.00 42 1023.4
20260501164759 58 39 11.0 22.0 0.00 0.00 0.00 42 1023.4
20260501164258 58 15 10.0 22.0 0.00 0.00 0.00 42 1023.5
20260501163758 58 27 9.0 18.0 0.00 0.00 0.00 43 1023.4
20260501163258 59 6 7.0 16.0 0.00 0.00 0.00 44 1023.5
20260501162759 59 42 7.0 14.0 0.00 0.00 0.00 45 1023.6
20260501161758 59 16 8.0 15.0 0.00 0.00 0.00 42 1023.7
20260501161257 59 11 8.0 17.0 0.00 0.00 0.00 41 1023.7
20260501160752 60 54 8.0 17.0 0.00 0.00 0.00 43 1023.8
20260501160246 60 263 8.0 16.0 0.00 0.00 0.00 44 1023.6
20260501155245 60 32 6.0 16.0 0.00 0.00 0.00 43 1023.7
20260501154745 60 24 5.0 16.0 0.00 0.00 0.00 43 1023.7
20260501153744 60 34 9.0 18.0 0.00 0.00 0.00 43 1023.6